TimeEDT,TemperatureF,Dew PointF,Humidity,Sea Level PressureIn,VisibilityMPH,Wind Direction,Wind SpeedMPH,Gust SpeedMPH,PrecipitationIn,Events,Conditions,WindDirDegrees,DateUTC
12:51 AM,57.9,43.9,60,30.57,10.0,WNW,3.5,-,N/A,,Clear,290,2013-06-04 04:51:00
1:51 AM,55.9,43.0,62,30.58,10.0,North,5.8,-,N/A,,Clear,350,2013-06-04 05:51:00
2:51 AM,55.9,38.8,53,30.58,10.0,WNW,12.7,-,N/A,,Clear,300,2013-06-04 06:51:00
3:51 AM,54.9,36.9,51,30.59,10.0,NW,9.2,-,N/A,,Clear,310,2013-06-04 07:51:00
4:51 AM,52.9,37.9,57,30.60,10.0,Calm,Calm,-,N/A,,Clear,0,2013-06-04 08:51:00
5:51 AM,52.9,36.9,55,30.62,10.0,NW,9.2,-,N/A,,Clear,310,2013-06-04 09:51:00
6:51 AM,54.9,37.9,53,30.64,10.0,WNW,10.4,-,N/A,,Clear,300,2013-06-04 10:51:00
7:51 AM,57.9,37.9,47,30.64,10.0,NW,17.3,-,N/A,,Clear,320,2013-06-04 11:51:00
8:51 AM,59.9,39.9,48,30.65,10.0,NNW,16.1,-,N/A,,Scattered Clouds,340,2013-06-04 12:51:00
9:51 AM,61.9,39.9,44,30.65,10.0,NW,9.2,18.4,N/A,,Clear,310,2013-06-04 13:51:00
10:51 AM,63.9,39.9,41,30.66,10.0,NNW,10.4,19.6,N/A,,Mostly Cloudy,330,2013-06-04 14:51:00
11:51 AM,64.9,38.8,38,30.67,10.0,NNW,15.0,24.2,N/A,,Mostly Cloudy,330,2013-06-04 15:51:00
12:51 PM,66.9,38.8,36,30.67,10.0,North,17.3,24.2,N/A,,Mostly Cloudy,360,2013-06-04 16:51:00
1:51 PM,66.9,39.9,37,30.68,10.0,NNW,16.1,24.2,N/A,,Mostly Cloudy,340,2013-06-04 17:51:00
2:51 PM,70.0,39.9,33,30.68,10.0,NW,16.1,28.8,N/A,,Partly Cloudy,310,2013-06-04 18:51:00
3:51 PM,70.0,39.9,33,30.67,10.0,NW,17.3,25.3,N/A,,Scattered Clouds,320,2013-06-04 19:51:00
4:51 PM,72.0,39.9,31,30.67,10.0,NNW,12.7,21.9,N/A,,Partly Cloudy,330,2013-06-04 20:51:00
5:51 PM,72.0,39.9,31,30.68,10.0,NW,15.0,24.2,N/A,,Clear,320,2013-06-04 21:51:00
6:51 PM,70.9,41.0,34,30.71,10.0,NW,10.4,18.4,N/A,,Clear,310,2013-06-04 22:51:00
7:51 PM,68.9,41.0,36,30.72,10.0,NW,8.1,-,N/A,,Clear,310,2013-06-04 23:51:00
8:51 PM,63.9,45.0,50,30.76,10.0,Calm,Calm,-,N/A,,Clear,0,2013-06-05 00:51:00
9:51 PM,59.0,46.9,64,30.80,10.0,Calm,Calm,-,N/A,,Clear,0,2013-06-05 01:51:00
10:51 PM,59.9,43.0,54,30.82,10.0,Calm,Calm,-,N/A,,Clear,0,2013-06-05 02:51:00
11:51 PM,57.9,43.9,60,30.84,10.0,Calm,Calm,-,N/A,,Clear,0,2013-06-05 03:51:00